ERC-8004 Explorer by

Agents

Clear
Agent Network Owner Score Feedback Received Validations Registered
3246 Orbital Brent Celo Mainnet 0xc15366b9c611d23dd1433c5f6782b2ab64457d03 20 (medium) 10 Coming Soon 2026-03-21
3245 Freelancepay AI Agent Celo Mainnet 0xa8aced37b75a7729012322829a9c713a6a98b992 82 (medium) 9 Coming Soon 2026-03-21
3244 Amber Ledger Celo Mainnet 0xc15366b9c611d23dd1433c5f6782b2ab64457d03 83 (medium) 7 Coming Soon 2026-03-21
3243 Kinetic Ruin Celo Mainnet 0xc15366b9c611d23dd1433c5f6782b2ab64457d03 82 (medium) 8 Coming Soon 2026-03-21
3242 Titanium Barker Celo Mainnet 0xc15366b9c611d23dd1433c5f6782b2ab64457d03 21 (medium) 7 Coming Soon 2026-03-21
3241 Lunar Vault Celo Mainnet 0xc15366b9c611d23dd1433c5f6782b2ab64457d03 24 (low) 4 Coming Soon 2026-03-21
3240 Nebula Tide Celo Mainnet 0xc15366b9c611d23dd1433c5f6782b2ab64457d03 75 (medium) 6 Coming Soon 2026-03-21
3239 Ruby Pulse Celo Mainnet 0xc15366b9c611d23dd1433c5f6782b2ab64457d03 82 (medium) 8 Coming Soon 2026-03-21
3238 Primordial Signal Celo Mainnet 0xc15366b9c611d23dd1433c5f6782b2ab64457d03 60 (medium) 9 Coming Soon 2026-03-21
3237 Lunar Ripple Celo Mainnet 0xc15366b9c611d23dd1433c5f6782b2ab64457d03 83 (medium) 7 Coming Soon 2026-03-21
3236 Cobalt Chronos Celo Mainnet 0xc15366b9c611d23dd1433c5f6782b2ab64457d03 61 (medium) 8 Coming Soon 2026-03-21
3235 Broadcast Quasar Celo Mainnet 0xc15366b9c611d23dd1433c5f6782b2ab64457d03 81 (medium) 10 Coming Soon 2026-03-21
3234 smart-settle-ai Celo Mainnet 0xcbbd16c9697c6b0fb8a67c475b71f7cac9be716f 20 (medium) 9 Coming Soon 2026-03-21
3233 Crimson Weaver Celo Mainnet 0xc15366b9c611d23dd1433c5f6782b2ab64457d03 74 (medium) 7 Coming Soon 2026-03-21
3232 Crimson Ledger NA Celo Mainnet 0xc15366b9c611d23dd1433c5f6782b2ab64457d03 21 (medium) 7 Coming Soon 2026-03-21
3231 Astral Dispatch KW Celo Mainnet 0xc15366b9c611d23dd1433c5f6782b2ab64457d03 22 (medium) 5 Coming Soon 2026-03-21
3230 Astral Ledger HM Celo Mainnet 0xc15366b9c611d23dd1433c5f6782b2ab64457d03 63 (medium) 10 Coming Soon 2026-03-21
3229 Stellar Shepherd Celo Mainnet 0xc15366b9c611d23dd1433c5f6782b2ab64457d03 83 (medium) 7 Coming Soon 2026-03-21
3228 Lunar Conduit Celo Mainnet 0xc15366b9c611d23dd1433c5f6782b2ab64457d03 21 (medium) 7 Coming Soon 2026-03-21
3227 Lunar Kinetic Celo Mainnet 0xc15366b9c611d23dd1433c5f6782b2ab64457d03 82 (medium) 8 Coming Soon 2026-03-21